User: anonymous   Login
Location: Rumah Long Bangan
(2.8362°N, 113.7519°E)
Time: 00:09:19
(UTC+00:00)
Language:

Cosmos 1758 - Orbit

View from above orbital plane
View from above orbital plane
View from above satellite
View from above satellite

Ground track
Ground track

The orbit data is extracted from the following two-line orbital elements,

1 16791U 86046A   22020.52061095  .00000894  00000-0  59795-4 0  9992
2 16791  82.4691 195.4745 0017461 130.7342 229.5404 15.05616156937821
Epoch (UTC): 20 January 2022 12:29:40
Eccentricity: 0.0017461
inclination: 82.4691°
perigee height: 537 km
apogee height: 562 km
right ascension of ascending node: 195.4745°
argument of perigee: 130.7342°
revolutions per day: 15.05616156
mean anomaly at epoch: 229.5404°
orbit number at epoch: 93782

The dashed part of the orbit path shows where the satellite is in the earth's shadow,  

DLR